Flag for U.S.A. Weather past 2 weeks in Bellingham, Washington, U.S.A.

Now
52 °F

Light rain. Mostly cloudy.


Feels Like: 49 °F
Forecast: 50 / 56 °F
Wind: 9 mph from South

Location: Bellingham International Airport

Current Time: Oct 23, 2014 at 1:24:46 PM

Latest Report: Oct 23, 2014 at 12:53 PM


Visibility: 6 mi

Pressure: 29.78 "Hg

Humidity: 86%

Dew point: 48 °F

Location of BellinghamLocation

Historic Weather in Bellingham — Graph

°F

Bellingham temperature yesterday

Maximum temperature yesterday: 62 °F (at 1:53 AM)
Minimum temperature yesterday: 55 °F (at 5:53 PM)
Average temperature yesterday: 57 °F

Past Weeks' High & Low Weather Summary

 TemperatureHumidityPressure
High74 °F (Oct 19, 2:53 PM)100% (Oct 9, 4:01 AM)30.24 "Hg (Oct 9, 4:01 AM)
Low48 °F (Oct 10, 2:53 AM)35% (Oct 13, 1:53 PM)29.48 "Hg (Oct 22, 7:53 PM)
Average57 °F80%29.86 "Hg
* Reported Oct 8 11:53 AM — Oct 23 11:53 AM, Bellingham, Weather by CustomWeather, © 2014

Note: Actual official high and low records may vary slightly from our data, if they occured in-between our weather recording intervals... More about our weather records

Advertising

Bellingham weather history for previous 24 hours

 ConditionsComfort  
Time TempWeatherWind HumidityBarometerVisibility
11:53 AM
Oct 23
54 °FMore clouds than sun.17 mph77%29.76 "Hg10 mi
10:53 AM53 °FMostly cloudy.14 mph80%29.73 "Hg7 mi
9:53 AM53 °FLight rain. Cloudy.18 mph77%29.73 "Hg6 mi
9:00 AM54 °FLight rain. Overcast.17 mph77%29.70 "Hg8 mi
7:53 AM54 °FLight rain. Partly cloudy.16 mph80%29.70 "Hg10 mi
6:53 AM54 °FLight rain. Overcast.12 mph80%29.70 "Hg10 mi
5:53 AM53 °FMostly cloudy.5 mph83%29.69 "Hg10 mi
4:53 AM54 °FOvercast.7 mph80%29.70 "Hg10 mi
3:53 AM54 °FPassing clouds.7 mph83%29.71 "Hg10 mi
2:53 AM55 °FPassing clouds.9 mph74%29.71 "Hg10 mi
1:53 AM54 °FPassing clouds.6 mph80%29.68 "Hg10 mi
12:53 AM54 °FLight rain. Mostly cloudy.3 mph86%29.67 "Hg10 mi
11:53 PM
Oct 22
55 °FMostly cloudy.9 mph87%29.63 "Hg10 mi
10:53 PM56 °FMostly cloudy.12 mph84%29.61 "Hg10 mi
9:53 PM57 °FLight rain. Mostly cloudy.12 mph81%29.56 "Hg5 mi
8:53 PM57 °FRain. Mostly cloudy.20 mph81%29.51 "Hg5 mi
7:53 PM58 °FMostly cloudy.18 mph70%29.48 "Hg10 mi
6:53 PM56 °FMostly cloudy.8 mph81%29.52 "Hg10 mi
5:53 PM55 °FLight rain. Fog.8 mph87%29.56 "Hg6 mi
4:53 PM57 °FLight rain. Mostly cloudy.9 mph78%29.59 "Hg10 mi
3:53 PM58 °FOvercast.9 mph75%29.62 "Hg10 mi
2:53 PM58 °FMore clouds than sun.10 mph78%29.64 "Hg10 mi
1:53 PM58 °FOvercast.5 mph78%29.67 "Hg10 mi
Weather by CustomWeather, © 2014

See weather overviewHow to use our weather pages